Time,TemperatureF,DewpointF,PressureIn,WindDirection,WindDirectionDegrees,WindSpeedMPH,WindSpeedGustMPH,Humidity,HourlyPrecipIn,Conditions,Clouds,dailyrainin,SoftwareType,DateUTC
2013-02-27 00:01:00,9.0,6.0,30.24,ENE,76,1.0,2.0,88,0.00,,,0.00,,2013-02-27 07:01:00,
2013-02-27 00:11:00,9.0,6.0,30.24,ENE,76,1.0,2.0,88,0.00,,,0.00,,2013-02-27 07:11:00,
2013-02-27 00:21:00,9.0,6.0,30.24,ENE,76,2.0,2.0,87,0.00,,,0.00,,2013-02-27 07:21:00,
2013-02-27 00:31:00,9.0,6.0,30.24,ENE,76,1.0,2.0,87,0.00,,,0.00,,2013-02-27 07:31:00,
2013-02-27 00:41:00,9.0,6.0,30.24,ENE,76,1.0,2.0,87,0.00,,,0.00,,2013-02-27 07:41:00,
2013-02-27 00:52:00,8.0,5.0,30.24,ENE,76,1.0,2.0,87,0.00,,,0.00,,2013-02-27 07:52:00,
2013-02-27 01:01:00,9.0,6.0,30.25,ENE,76,0.0,1.0,88,0.00,,,0.00,,2013-02-27 08:01:00,
2013-02-27 01:11:00,9.0,6.0,30.25,ENE,76,0.0,1.0,88,0.00,,,0.00,,2013-02-27 08:11:00,
2013-02-27 01:21:00,8.0,5.0,30.25,ENE,76,0.0,1.0,87,0.00,,,0.00,,2013-02-27 08:21:00,
2013-02-27 01:31:00,8.0,5.0,30.26,ENE,76,0.0,0.0,88,0.00,,,0.00,,2013-02-27 08:31:00,
2013-02-27 01:41:00,8.0,5.0,30.26,ENE,76,0.0,0.0,88,0.00,,,0.00,,2013-02-27 08:41:00,
2013-02-27 01:52:00,7.0,4.0,30.26,ENE,76,0.0,0.0,87,0.00,,,0.00,,2013-02-27 08:52:00,
2013-02-27 02:01:00,7.0,4.0,30.25,ENE,76,0.0,0.0,88,0.00,,,0.00,,2013-02-27 09:01:00,
2013-02-27 02:11:00,7.0,4.0,30.25,ENE,76,0.0,0.0,88,0.00,,,0.00,,2013-02-27 09:11:00,
2013-02-27 02:21:00,7.0,4.0,30.25,ENE,76,0.0,1.0,88,0.00,,,0.00,,2013-02-27 09:21:00,
2013-02-27 02:31:00,7.0,4.0,30.25,ENE,76,0.0,0.0,88,0.00,,,0.00,,2013-02-27 09:31:00,
2013-02-27 02:41:00,7.0,4.0,30.25,ENE,76,0.0,0.0,88,0.00,,,0.00,,2013-02-27 09:41:00,
2013-02-27 02:51:00,7.0,4.0,30.27,ENE,76,0.0,1.0,88,0.00,,,0.00,,2013-02-27 09:51:00,
2013-02-27 03:01:00,7.0,4.0,30.27,ENE,76,0.0,2.0,88,0.00,,,0.00,,2013-02-27 10:01:00,
2013-02-27 03:12:00,7.0,4.0,30.27,ENE,76,0.0,2.0,88,0.00,,,0.00,,2013-02-27 10:12:00,
2013-02-27 03:21:00,7.0,4.0,30.27,ENE,76,0.0,2.0,89,0.00,,,0.00,,2013-02-27 10:21:00,
2013-02-27 03:31:00,7.0,4.0,30.26,ENE,76,0.0,0.0,88,0.00,,,0.00,,2013-02-27 10:31:00,
2013-02-27 03:41:00,7.0,4.0,30.26,ENE,76,0.0,0.0,88,0.00,,,0.00,,2013-02-27 10:41:00,
2013-02-27 03:52:00,7.0,4.0,30.26,ENE,76,0.0,1.0,88,0.00,,,0.00,,2013-02-27 10:52:00,
2013-02-27 04:01:00,6.0,3.0,30.26,ENE,76,0.0,1.0,87,0.00,,,0.00,,2013-02-27 11:01:00,
2013-02-27 04:11:00,6.0,3.0,30.26,ENE,76,0.0,1.0,87,0.00,,,0.00,,2013-02-27 11:11:00,
2013-02-27 04:22:00,6.0,3.0,30.26,ENE,76,0.0,1.0,89,0.00,,,0.00,,2013-02-27 11:22:00,
2013-02-27 04:31:00,6.0,3.0,30.26,ENE,76,0.0,0.0,88,0.00,,,0.00,,2013-02-27 11:31:00,
2013-02-27 04:41:00,6.0,3.0,30.26,ENE,76,0.0,0.0,88,0.00,,,0.00,,2013-02-27 11:41:00,
2013-02-27 04:52:00,5.0,2.0,30.26,ENE,76,0.0,1.0,87,0.00,,,0.00,,2013-02-27 11:52:00,
2013-02-27 05:01:00,5.0,2.0,30.26,ENE,76,1.0,1.0,87,0.00,,,0.00,,2013-02-27 12:01:00,
2013-02-27 05:12:00,5.0,2.0,30.26,ENE,76,1.0,1.0,87,0.00,,,0.00,,2013-02-27 12:12:00,
2013-02-27 05:22:00,5.0,2.0,30.27,ENE,76,0.0,2.0,88,0.00,,,0.00,,2013-02-27 12:22:00,
2013-02-27 05:32:00,5.0,2.0,30.29,ENE,76,0.0,0.0,88,0.00,,,0.00,,2013-02-27 12:32:00,
2013-02-27 05:41:00,5.0,2.0,30.29,ENE,76,0.0,0.0,88,0.00,,,0.00,,2013-02-27 12:41:00,
2013-02-27 05:52:00,5.0,2.0,30.29,ENE,76,0.0,1.0,87,0.00,,,0.00,,2013-02-27 12:52:00,
2013-02-27 06:01:00,5.0,2.0,30.29,ENE,76,0.0,1.0,87,0.00,,,0.00,,2013-02-27 13:01:00,
2013-02-27 06:11:00,5.0,2.0,30.29,ENE,76,0.0,1.0,87,0.00,,,0.00,,2013-02-27 13:11:00,
2013-02-27 06:21:00,5.0,2.0,30.29,ENE,76,0.0,1.0,87,0.00,,,0.00,,2013-02-27 13:21:00,
2013-02-27 06:31:00,4.0,1.0,30.28,ENE,76,0.0,2.0,87,0.00,,,0.00,,2013-02-27 13:31:00,
2013-02-27 06:41:00,4.0,1.0,30.28,ENE,76,0.0,2.0,87,0.00,,,0.00,,2013-02-27 13:41:00,
2013-02-27 06:52:00,4.0,1.0,30.29,ENE,76,1.0,1.0,87,0.00,,,0.00,,2013-02-27 13:52:00,
2013-02-27 07:01:00,4.0,1.0,30.29,ENE,76,1.0,1.0,87,0.00,,,0.00,,2013-02-27 14:01:00,
2013-02-27 07:11:00,4.0,1.0,30.29,ENE,76,1.0,1.0,87,0.00,,,0.00,,2013-02-27 14:11:00,
2013-02-27 07:21:00,4.0,1.0,30.29,ENE,76,0.0,1.0,87,0.00,,,0.00,,2013-02-27 14:21:00,
2013-02-27 07:31:00,4.0,1.0,30.29,ENE,76,0.0,1.0,87,0.00,,,0.00,,2013-02-27 14:31:00,
2013-02-27 07:41:00,4.0,1.0,30.29,ENE,76,0.0,1.0,87,0.00,,,0.00,,2013-02-27 14:41:00,
2013-02-27 07:52:00,4.0,1.0,30.29,ENE,76,0.0,1.0,87,0.00,,,0.00,,2013-02-27 14:52:00,
2013-02-27 08:01:00,5.0,2.0,30.30,ENE,76,0.0,0.0,89,0.00,,,0.00,,2013-02-27 15:01:00,
2013-02-27 08:11:00,5.0,2.0,30.30,ENE,76,0.0,0.0,89,0.00,,,0.00,,2013-02-27 15:11:00,
2013-02-27 08:21:00,6.0,4.0,30.30,ENE,76,0.0,0.0,90,0.00,,,0.00,,2013-02-27 15:21:00,
2013-02-27 08:31:00,7.0,5.0,30.31,ENE,76,0.0,0.0,90,0.00,,,0.00,,2013-02-27 15:31:00,
2013-02-27 08:41:00,7.0,5.0,30.31,ENE,76,0.0,0.0,90,0.00,,,0.00,,2013-02-27 15:41:00,
2013-02-27 08:52:00,9.0,7.0,30.31,ENE,76,0.0,1.0,90,0.00,,,0.00,,2013-02-27 15:52:00,
2013-02-27 09:01:00,10.0,7.0,30.31,ENE,76,0.0,0.0,88,0.00,,,0.00,,2013-02-27 16:01:00,
2013-02-27 09:11:00,10.0,7.0,30.31,ENE,76,0.0,0.0,88,0.00,,,0.00,,2013-02-27 16:11:00,
2013-02-27 09:21:00,14.0,10.0,30.32,ENE,76,0.0,2.0,84,0.00,,,0.00,,2013-02-27 16:21:00,
2013-02-27 09:31:00,15.0,9.0,30.32,ENE,76,0.0,2.0,76,0.00,,,0.00,,2013-02-27 16:31:00,
2013-02-27 09:41:00,15.0,9.0,30.32,ENE,76,0.0,2.0,76,0.00,,,0.00,,2013-02-27 16:41:00,
2013-02-27 09:52:00,18.0,11.0,30.32,ENE,76,0.0,2.0,73,0.00,,,0.00,,2013-02-27 16:52:00,
2013-02-27 10:01:00,18.0,11.0,30.33,ENE,76,2.0,3.0,74,0.01,,,0.01,,2013-02-27 17:01:00,
2013-02-27 10:11:00,18.0,11.0,30.33,ENE,76,2.0,3.0,74,0.01,,,0.01,,2013-02-27 17:11:00,
2013-02-27 10:21:00,19.0,11.0,30.33,East,86,1.0,4.0,69,0.01,,,0.01,,2013-02-27 17:21:00,
2013-02-27 10:32:00,20.0,11.0,30.34,SSW,197,2.0,4.0,66,0.01,,,0.01,,2013-02-27 17:32:00,
2013-02-27 10:41:00,20.0,11.0,30.34,SSW,197,2.0,4.0,66,0.01,,,0.01,,2013-02-27 17:41:00,
2013-02-27 10:52:00,22.0,12.0,30.33,SE,146,1.0,3.0,64,0.01,,,0.01,,2013-02-27 17:52:00,
2013-02-27 11:01:00,23.0,13.0,30.33,ENE,70,2.0,6.0,64,0.00,,,0.01,,2013-02-27 18:01:00,
2013-02-27 11:11:00,23.0,13.0,30.33,ENE,70,2.0,6.0,64,0.00,,,0.01,,2013-02-27 18:11:00,
2013-02-27 11:21:00,24.0,13.0,30.32,East,84,3.0,10.0,62,0.00,,,0.01,,2013-02-27 18:21:00,
2013-02-27 11:31:00,24.0,13.0,30.31,ENE,61,3.0,9.0,62,0.00,,,0.01,,2013-02-27 18:31:00,
2013-02-27 11:42:00,24.0,13.0,30.31,ENE,61,3.0,9.0,62,0.00,,,0.01,,2013-02-27 18:42:00,
2013-02-27 11:52:00,25.0,13.0,30.32,East,84,4.0,10.0,59,0.00,,,0.01,,2013-02-27 18:52:00,
2013-02-27 12:01:00,25.0,13.0,30.32,East,82,4.0,7.0,61,0.00,,,0.01,,2013-02-27 19:01:00,
2013-02-27 12:11:00,25.0,13.0,30.32,East,82,4.0,7.0,61,0.00,,,0.01,,2013-02-27 19:11:00,
2013-02-27 12:21:00,26.0,14.0,30.32,East,84,5.0,9.0,60,0.00,,,0.01,,2013-02-27 19:21:00,
2013-02-27 12:32:00,26.0,14.0,30.32,East,81,4.0,9.0,59,0.00,,,0.01,,2013-02-27 19:32:00,
2013-02-27 12:41:00,26.0,14.0,30.32,East,81,4.0,9.0,59,0.00,,,0.01,,2013-02-27 19:41:00,
2013-02-27 12:52:00,26.0,14.0,30.32,ENE,70,5.0,11.0,59,0.00,,,0.01,,2013-02-27 19:52:00,
2013-02-27 13:01:00,27.0,14.0,30.32,NE,40,3.0,10.0,57,0.00,,,0.01,,2013-02-27 20:01:00,
2013-02-27 13:11:00,27.0,14.0,30.32,NE,40,3.0,10.0,57,0.00,,,0.01,,2013-02-27 20:11:00,
2013-02-27 13:21:00,28.0,14.0,30.32,ENE,77,5.0,10.0,55,0.00,,,0.01,,2013-02-27 20:21:00,
2013-02-27 13:31:00,27.0,13.0,30.32,ENE,65,4.0,13.0,54,0.00,,,0.01,,2013-02-27 20:31:00,
2013-02-27 13:41:00,27.0,13.0,30.32,ENE,65,4.0,13.0,54,0.00,,,0.01,,2013-02-27 20:41:00,
2013-02-27 13:52:00,27.0,13.0,30.32,East,89,4.0,12.0,55,0.00,,,0.01,,2013-02-27 20:52:00,
2013-02-27 14:01:00,27.0,13.0,30.32,East,81,5.0,11.0,54,0.00,,,0.01,,2013-02-27 21:01:00,
2013-02-27 14:11:00,27.0,13.0,30.32,East,81,5.0,11.0,54,0.00,,,0.01,,2013-02-27 21:11:00,
2013-02-27 14:21:00,27.0,12.0,30.32,East,83,5.0,12.0,52,0.00,,,0.01,,2013-02-27 21:21:00,
2013-02-27 14:31:00,27.0,12.0,30.32,ENE,64,3.0,10.0,53,0.00,,,0.01,,2013-02-27 21:31:00,
2013-02-27 14:41:00,27.0,12.0,30.32,ENE,64,3.0,10.0,53,0.00,,,0.01,,2013-02-27 21:41:00,
2013-02-27 14:52:00,28.0,13.0,30.31,ENE,78,5.0,13.0,52,0.00,,,0.01,,2013-02-27 21:52:00,
2013-02-27 15:01:00,28.0,13.0,30.31,ENE,78,5.0,13.0,52,0.00,,,0.01,,2013-02-27 22:01:00,
2013-02-27 15:11:00,28.0,13.0,30.31,ENE,78,5.0,13.0,52,0.00,,,0.01,,2013-02-27 22:11:00,
2013-02-27 15:21:00,28.0,13.0,30.31,ENE,78,5.0,13.0,52,0.00,,,0.01,,2013-02-27 22:21:00,
2013-02-27 15:31:00,28.0,13.0,30.31,ENE,78,5.0,13.0,52,0.00,,,0.01,,2013-02-27 22:31:00,
2013-02-27 23:52:00,13.0,9.0,30.37,East,80,0.0,0.0,85,0.00,,,0.00,,2013-02-28 06:52:00,